| time (UTC) | temp F | wind direction | speed MPH | gust MPH | rain 1hr in | rain 24hr in | rain mn in | humidity % | barometer mb |
| 20260504193015 | 67 | 229 | 6.0 | 21.0 | 0.00 | 0.00 | 0.00 | 43 | 1006.3 |
| 20260504192513 | 67 | 218 | 10.0 | 23.0 | 0.00 | 0.00 | 0.00 | 42 | 1006.2 |
| 20260504192013 | 67 | 219 | 7.0 | 23.0 | 0.00 | 0.00 | 0.00 | 42 | 1006.3 |
| 20260504191510 | 67 | 286 | 9.0 | 25.0 | 0.00 | 0.00 | 0.00 | 42 | 1006.2 |
| 20260504191010 | 67 | 178 | 12.0 | 25.0 | 0.00 | 0.00 | 0.00 | 43 | 1006.2 |
| 20260504190509 | 67 | 179 | 9.0 | 18.0 | 0.00 | 0.00 | 0.00 | 44 | 1006.3 |
| 20260504190007 | 65 | 233 | 9.0 | 15.0 | 0.00 | 0.00 | 0.00 | 43 | 1006.3 |
| 20260504185506 | 64 | 233 | 5.0 | 18.0 | 0.00 | 0.00 | 0.00 | 45 | 1006.5 |
| 20260504185005 | 65 | 221 | 6.0 | 18.0 | 0.00 | 0.00 | 0.00 | 44 | 1006.5 |
| 20260504184505 | 64 | 241 | 6.0 | 15.0 | 0.00 | 0.00 | 0.00 | 45 | 1006.4 |
| 20260504184005 | 64 | 296 | 6.0 | 16.0 | 0.00 | 0.00 | 0.00 | 48 | 1006.7 |
| 20260504183504 | 64 | 262 | 9.0 | 16.0 | 0.00 | 0.00 | 0.00 | 46 | 1006.6 |
| 20260504183009 | 64 | 197 | 7.0 | 16.0 | 0.00 | 0.00 | 0.00 | 45 | 1006.5 |
| 20260504182503 | 64 | 248 | 7.0 | 16.0 | 0.00 | 0.00 | 0.00 | 47 | 1006.7 |
| 20260504182002 | 64 | 201 | 7.0 | 15.0 | 0.00 | 0.00 | 0.00 | 47 | 1006.7 |
| 20260504181501 | 64 | 251 | 5.0 | 14.0 | 0.00 | 0.00 | 0.00 | 47 | 1006.8 |
| 20260504181100 | 63 | 167 | 3.0 | 14.0 | 0.00 | 0.00 | 0.00 | 49 | 1006.8 |
| 20260504180601 | 61 | 219 | 5.0 | 14.0 | 0.00 | 0.00 | 0.00 | 52 | 1006.9 |
| 20260504180101 | 61 | 340 | 6.0 | 14.0 | 0.00 | 0.00 | 0.00 | 51 | 1006.9 |
| 20260504175559 | 60 | 182 | 5.0 | 17.0 | 0.00 | 0.00 | 0.00 | 51 | 1007.0 |
| 20260504175100 | 60 | 244 | 6.0 | 20.0 | 0.00 | 0.00 | 0.00 | 50 | 1007.0 |
| 20260504174602 | 60 | 202 | 6.0 | 20.0 | 0.00 | 0.00 | 0.00 | 50 | 1007.1 |
| 20260504174059 | 60 | 264 | 10.0 | 20.0 | 0.00 | 0.00 | 0.00 | 49 | 1007.1 |
| 20260504173603 | 60 | 257 | 4.0 | 16.0 | 0.00 | 0.00 | 0.00 | 50 | 1007.1 |
| 20260504173100 | 61 | 288 | 4.0 | 16.0 | 0.00 | 0.00 | 0.00 | 49 | 1007.1 |
| 20260504172558 | 61 | 290 | 5.0 | 15.0 | 0.00 | 0.00 | 0.00 | 50 | 1007.1 |
| 20260504172058 | 61 | 225 | 7.0 | 20.0 | 0.00 | 0.00 | 0.00 | 48 | 1007.0 |
| 20260504171558 | 61 | 267 | 9.0 | 20.0 | 0.00 | 0.00 | 0.00 | 49 | 1007.0 |
| 20260504171058 | 61 | 265 | 3.0 | 14.0 | 0.00 | 0.00 | 0.00 | 48 | 1007.0 |
| 20260504170558 | 61 | 261 | 4.0 | 14.0 | 0.00 | 0.00 | 0.00 | 48 | 1007.0 |
| 20260504151052 | 62 | 244 | 8.0 | 18.0 | 0.00 | 0.00 | 0.00 | 46 | 1007.3 |
| 20260504150548 | 61 | 189 | 10.0 | 22.0 | 0.00 | 0.00 | 0.00 | 47 | 1007.3 |
| 20260504141038 | 57 | 211 | 8.0 | 16.0 | 0.00 | 0.00 | 0.00 | 53 | 1007.7 |
| 20260504140537 | 57 | 186 | 8.0 | 18.0 | 0.00 | 0.00 | 0.00 | 54 | 1007.8 |
| 20260504130525 | 51 | 221 | 2.0 | 9.0 | 0.00 | 0.00 | 0.00 | 69 | 1008.8 |
| 20260504110502 | 41 | 219 | 0.0 | 2.0 | 0.00 | 0.00 | 0.00 | 82 | 1009.9 |
| 20260504100554 | 40 | 219 | 0.0 | 2.0 | 0.00 | 0.00 | 0.00 | 77 | 1009.4 |
| 20260504081544 | 40 | 219 | 0.0 | 1.0 | 0.00 | 0.00 | 0.00 | 68 | 1009.5 |
| 20260504081044 | 40 | 219 | 0.0 | 1.0 | 0.00 | 0.00 | 0.00 | 67 | 1009.5 |
| 20260504080543 | 40 | 219 | 0.0 | 1.0 | 0.00 | 0.00 | 0.00 | 67 | 1009.6 |
| 20260504050526 | 38 | 240 | 2.0 | 4.0 | 0.00 | 0.00 | 0.00 | 69 | 1009.5 |
| 20260504045524 | 38 | 223 | 3.0 | 6.0 | 0.00 | 0.00 | 0.00 | 69 | 1009.4 |
| 20260504045023 | 38 | 228 | 2.0 | 5.0 | 0.00 | 0.00 | 0.00 | 68 | 1009.4 |
| 20260504044523 | 38 | 227 | 2.0 | 4.0 | 0.00 | 0.00 | 0.00 | 68 | 1009.5 |
| 20260504044021 | 38 | 234 | 2.0 | 4.0 | 0.00 | 0.00 | 0.00 | 68 | 1009.5 |
| 20260504043521 | 38 | 234 | 2.0 | 5.0 | 0.00 | 0.00 | 0.00 | 67 | 1009.5 |
| 20260504043027 | 38 | 242 | 2.0 | 5.0 | 0.00 | 0.00 | 0.00 | 67 | 1009.4 |
| 20260504042518 | 39 | 238 | 2.0 | 5.0 | 0.00 | 0.00 | 0.00 | 66 | 1009.4 |
| 20260504042017 | 39 | 236 | 2.0 | 7.0 | 0.00 | 0.00 | 0.00 | 65 | 1009.3 |
| 20260504041530 | 39 | 246 | 2.0 | 7.0 | 0.00 | 0.00 | 0.00 | 65 | 1009.3 |
| 20260504041015 | 40 | 237 | 3.0 | 7.0 | 0.00 | 0.00 | 0.00 | 63 | 1009.3 |
| 20260504040514 | 40 | 213 | 3.0 | 6.0 | 0.00 | 0.00 | 0.00 | 62 | 1009.3 |
| 20260504040013 | 40 | 259 | 2.0 | 6.0 | 0.00 | 0.00 | 0.00 | 62 | 1009.2 |
| 20260504035513 | 40 | 213 | 1.0 | 3.0 | 0.00 | 0.01 | 0.00 | 63 | 1009.2 |
| 20260504035014 | 39 | 267 | 1.0 | 3.0 | 0.00 | 0.01 | 0.00 | 64 | 1009.2 |
| 20260504034517 | 40 | 267 | 1.0 | 3.0 | 0.00 | 0.01 | 0.00 | 64 | 1009.3 |
| 20260504034012 | 40 | 267 | 0.0 | 3.0 | 0.00 | 0.01 | 0.00 | 63 | 1009.2 |
| 20260504033511 | 40 | 267 | 0.0 | 4.0 | 0.00 | 0.01 | 0.00 | 64 | 1009.2 |
| 20260504033014 | 40 | 267 | 2.0 | 4.0 | 0.00 | 0.01 | 0.00 | 63 | 1009.3 |
| 20260504032511 | 40 | 231 | 1.0 | 4.0 | 0.00 | 0.01 | 0.00 | 64 | 1009.3 |
| 20260504032011 | 40 | 227 | 2.0 | 4.0 | 0.00 | 0.01 | 0.00 | 64 | 1009.2 |
| 20260504031629 | 40 | 257 | 1.0 | 4.0 | 0.00 | 0.01 | 0.00 | 64 | 1009.2 |
| 20260504031011 | 40 | 257 | 2.0 | 4.0 | 0.00 | 0.01 | 0.00 | 64 | 1009.2 |
| 20260504030510 | 40 | 257 | 1.0 | 4.0 | 0.00 | 0.01 | 0.00 | 64 | 1009.3 |
| 20260504030010 | 40 | 257 | 1.0 | 4.0 | 0.00 | 0.01 | 0.00 | 64 | 1009.3 |
| 20260504025510 | 40 | 257 | 1.0 | 4.0 | 0.00 | 0.08 | 0.00 | 64 | 1009.3 |
| 20260504025010 | 40 | 223 | 2.0 | 4.0 | 0.00 | 0.08 | 0.00 | 63 | 1009.4 |
| 20260504024510 | 41 | 252 | 2.0 | 4.0 | 0.00 | 0.08 | 0.00 | 63 | 1009.3 |
| 20260504024010 | 41 | 214 | 2.0 | 4.0 | 0.00 | 0.08 | 0.00 | 62 | 1009.3 |
| 20260504023509 | 41 | 205 | 2.0 | 5.0 | 0.00 | 0.08 | 0.00 | 62 | 1009.4 |
| 20260504023009 | 41 | 209 | 1.0 | 5.0 | 0.00 | 0.08 | 0.00 | 61 | 1009.4 |
| 20260504022508 | 41 | 252 | 2.0 | 6.0 | 0.00 | 0.08 | 0.00 | 62 | 1009.4 |
| 20260504022009 | 41 | 248 | 2.0 | 6.0 | 0.00 | 0.08 | 0.00 | 62 | 1009.4 |
| 20260504021508 | 41 | 240 | 1.0 | 4.0 | 0.00 | 0.08 | 0.00 | 62 | 1009.4 |
| 20260504021008 | 41 | 240 | 1.0 | 4.0 | 0.00 | 0.08 | 0.00 | 62 | 1009.4 |
| 20260504020611 | 41 | 240 | 2.0 | 4.0 | 0.00 | 0.08 | 0.00 | 62 | 1009.4 |
| 20260504020015 | 41 | 240 | 2.0 | 4.0 | 0.00 | 0.09 | 0.00 | 61 | 1009.4 |
| 20260504015508 | 42 | 255 | 2.0 | 3.0 | 0.00 | 0.09 | 0.00 | 61 | 1009.3 |
| 20260504015010 | 41 | 252 | 2.0 | 4.0 | 0.00 | 0.09 | 0.00 | 61 | 1009.3 |
| 20260504014513 | 41 | 252 | 2.0 | 5.0 | 0.00 | 0.09 | 0.00 | 62 | 1009.2 |
| 20260504014006 | 41 | 252 | 2.0 | 5.0 | 0.00 | 0.09 | 0.00 | 62 | 1009.3 |
| 20260504013506 | 41 | 252 | 2.0 | 7.0 | 0.00 | 0.09 | 0.00 | 62 | 1009.4 |
| 20260504013006 | 41 | 247 | 3.0 | 7.0 | 0.00 | 0.09 | 0.00 | 61 | 1009.3 |
| 20260504012506 | 41 | 229 | 2.0 | 8.0 | 0.00 | 0.09 | 0.00 | 62 | 1009.3 |
| 20260504012006 | 41 | 269 | 3.0 | 8.0 | 0.00 | 0.09 | 0.00 | 62 | 1009.2 |
| 20260504011506 | 41 | 238 | 2.0 | 7.0 | 0.00 | 0.09 | 0.00 | 62 | 1009.2 |
| 20260504011006 | 42 | 252 | 3.0 | 7.0 | 0.00 | 0.09 | 0.00 | 62 | 1009.2 |
| 20260504010508 | 42 | 234 | 3.0 | 8.0 | 0.00 | 0.09 | 0.00 | 62 | 1009.1 |
| 20260504010006 | 42 | 225 | 3.0 | 6.0 | 0.00 | 0.10 | 0.00 | 63 | 1009.0 |
| 20260504005505 | 42 | 257 | 3.0 | 7.0 | 0.00 | 0.10 | 0.00 | 63 | 1009.0 |
| 20260504005005 | 42 | 257 | 1.0 | 7.0 | 0.00 | 0.10 | 0.00 | 63 | 1009.0 |
| 20260504004516 | 42 | 232 | 2.0 | 9.0 | 0.00 | 0.10 | 0.00 | 62 | 1008.9 |
| 20260504004004 | 42 | 218 | 3.0 | 9.0 | 0.00 | 0.10 | 0.00 | 62 | 1008.9 |
| 20260504003504 | 42 | 229 | 2.0 | 7.0 | 0.00 | 0.10 | 0.00 | 61 | 1008.8 |
| 20260504003004 | 43 | 243 | 3.0 | 9.0 | 0.00 | 0.10 | 0.00 | 61 | 1008.8 |
| 20260504002504 | 43 | 255 | 3.0 | 9.0 | 0.00 | 0.10 | 0.00 | 60 | 1008.7 |
| 20260504002004 | 43 | 214 | 3.0 | 9.0 | 0.00 | 0.10 | 0.00 | 59 | 1008.7 |
| 20260504001504 | 43 | 204 | 3.0 | 9.0 | 0.00 | 0.10 | 0.00 | 59 | 1008.5 |
| 20260504001004 | 44 | 208 | 3.0 | 9.0 | 0.00 | 0.10 | 0.00 | 59 | 1008.5 |
| 20260504000505 | 44 | 234 | 2.0 | 9.0 | 0.00 | 0.10 | 0.00 | 59 | 1008.4 |
| 20260504000105 | 44 | 289 | 3.0 | 9.0 | 0.00 | 0.10 | 0.00 | 59 | 1008.4 |
| 20260503235502 | 44 | 259 | 1.0 | 11.0 | 0.00 | 0.10 | 0.00 | 58 | 1008.3 |
| 20260503235003 | 44 | 245 | 3.0 | 13.0 | 0.00 | 0.10 | 0.00 | 58 | 1008.3 |
| 20260503234503 | 44 | 307 | 2.0 | 13.0 | 0.00 | 0.10 | 0.00 | 58 | 1008.2 |
| 20260503234003 | 44 | 26 | 1.0 | 9.0 | 0.00 | 0.10 | 0.00 | 57 | 1008.2 |
| 20260503233502 | 45 | 254 | 3.0 | 10.0 | 0.00 | 0.10 | 0.00 | 56 | 1008.1 |
| 20260503233005 | 45 | 209 | 2.0 | 10.0 | 0.00 | 0.10 | 0.00 | 56 | 1008.1 |
| 20260503232502 | 45 | 327 | 5.0 | 15.0 | 0.00 | 0.10 | 0.00 | 55 | 1008.1 |
| 20260503232003 | 45 | 307 | 2.0 | 14.0 | 0.00 | 0.10 | 0.00 | 56 | 1008.2 |
| 20260503231502 | 45 | 115 | 4.0 | 10.0 | 0.00 | 0.10 | 0.00 | 57 | 1008.1 |
| 20260503231003 | 45 | 355 | 1.0 | 7.0 | 0.00 | 0.10 | 0.00 | 57 | 1008.1 |
| 20260503230501 | 45 | 323 | 2.0 | 6.0 | 0.00 | 0.10 | 0.00 | 58 | 1008.1 |
| 20260503230002 | 45 | 22 | 2.0 | 11.0 | 0.00 | 0.11 | 0.00 | 58 | 1008.1 |
| 20260503225503 | 45 | 292 | 5.0 | 11.0 | 0.00 | 0.11 | 0.00 | 56 | 1008.1 |
| 20260503225001 | 45 | 269 | 3.0 | 9.0 | 0.00 | 0.11 | 0.00 | 57 | 1008.0 |
| 20260503224502 | 45 | 5 | 3.0 | 10.0 | 0.00 | 0.11 | 0.00 | 57 | 1008.1 |
| 20260503224102 | 46 | 27 | 2.0 | 10.0 | 0.00 | 0.11 | 0.00 | 58 | 1008.0 |
| 20260503223600 | 46 | 296 | 3.0 | 9.0 | 0.00 | 0.11 | 0.00 | 57 | 1008.0 |
| 20260503223102 | 46 | 294 | 1.0 | 13.0 | 0.00 | 0.11 | 0.00 | 58 | 1008.0 |
| 20260503222559 | 46 | 69 | 3.0 | 13.0 | 0.00 | 0.11 | 0.00 | 56 | 1008.0 |
| 20260503222059 | 46 | 17 | 3.0 | 7.0 | 0.00 | 0.11 | 0.00 | 58 | 1007.9 |
| 20260503221601 | 46 | 235 | 2.0 | 9.0 | 0.00 | 0.11 | 0.00 | 59 | 1007.8 |
| 20260503221059 | 46 | 240 | 1.0 | 9.0 | 0.00 | 0.11 | 0.00 | 58 | 1007.8 |
| 20260503220600 | 46 | 11 | 2.0 | 8.0 | 0.00 | 0.11 | 0.00 | 58 | 1007.8 |
| 20260503220059 | 46 | 32 | 3.0 | 8.0 | 0.00 | 0.11 | 0.00 | 58 | 1007.8 |
| 20260503215558 | 46 | 27 | 2.0 | 8.0 | 0.00 | 0.14 | 0.00 | 57 | 1007.6 |
| 20260503215058 | 46 | 64 | 2.0 | 8.0 | 0.00 | 0.14 | 0.00 | 57 | 1007.7 |
| 20260503214558 | 46 | 355 | 2.0 | 9.0 | 0.00 | 0.14 | 0.00 | 56 | 1007.6 |
| 20260503214058 | 47 | 61 | 3.0 | 15.0 | 0.00 | 0.14 | 0.00 | 58 | 1007.6 |
| 20260503213557 | 46 | 350 | 3.0 | 15.0 | 0.00 | 0.14 | 0.00 | 56 | 1007.6 |
| 20260503213058 | 46 | 13 | 4.0 | 14.0 | 0.00 | 0.14 | 0.00 | 54 | 1007.6 |
| 20260503212557 | 46 | 294 | 4.0 | 14.0 | 0.00 | 0.14 | 0.00 | 57 | 1007.6 |
| 20260503212058 | 46 | 11 | 3.0 | 13.0 | 0.00 | 0.14 | 0.00 | 55 | 1007.6 |
| 20260503211559 | 47 | 32 | 5.0 | 13.0 | 0.00 | 0.14 | 0.00 | 55 | 1007.8 |
| 20260503211057 | 46 | 20 | 3.0 | 13.0 | 0.00 | 0.14 | 0.00 | 56 | 1007.6 |
| 20260503210556 | 46 | 46 | 3.0 | 9.0 | 0.00 | 0.14 | 0.00 | 56 | 1007.5 |
| 20260503210057 | 46 | 63 | 2.0 | 8.0 | 0.00 | 0.14 | 0.00 | 56 | 1007.4 |
| 20260503205559 | 46 | 346 | 1.0 | 10.0 | 0.00 | 0.14 | 0.00 | 55 | 1007.4 |
| 20260503205055 | 46 | 333 | 4.0 | 20.0 | 0.00 | 0.14 | 0.00 | 54 | 1007.4 |
| 20260503204557 | 47 | 272 | 8.0 | 20.0 | 0.00 | 0.14 | 0.00 | 53 | 1007.3 |
| 20260503204055 | 47 | 58 | 3.0 | 9.0 | 0.00 | 0.14 | 0.00 | 55 | 1007.4 |
| 20260503203555 | 46 | 11 | 2.0 | 10.0 | 0.00 | 0.14 | 0.00 | 55 | 1007.3 |
| 20260503203057 | 47 | 86 | 4.0 | 12.0 | 0.00 | 0.14 | 0.00 | 54 | 1007.4 |
| 20260503202553 | 47 | 53 | 5.0 | 14.0 | 0.00 | 0.14 | 0.00 | 56 | 1007.2 |
| 20260503202054 | 47 | 45 | 5.0 | 14.0 | 0.00 | 0.14 | 0.00 | 54 | 1007.2 |
| 20260503201553 | 47 | 24 | 2.0 | 12.0 | 0.00 | 0.14 | 0.00 | 56 | 1007.2 |
| 20260503201052 | 47 | 46 | 2.0 | 12.0 | 0.00 | 0.14 | 0.00 | 58 | 1007.1 |
| 20260503200552 | 47 | 15 | 5.0 | 12.0 | 0.00 | 0.14 | 0.00 | 56 | 1007.0 |
| 20260503200056 | 47 | 17 | 6.0 | 12.0 | 0.00 | 0.14 | 0.00 | 55 | 1007.1 |
| 20260503195556 | 48 | 49 | 4.0 | 12.0 | 0.00 | 0.14 | 0.00 | 56 | 1006.9 |
| 20260503195054 | 48 | 40 | 2.0 | 12.0 | 0.00 | 0.14 | 0.00 | 56 | 1006.8 |
| 20260503194558 | 47 | 355 | 3.0 | 12.0 | 0.00 | 0.14 | 0.00 | 57 | 1007.1 |
| 20260503194051 | 47 | 303 | 3.0 | 12.0 | 0.00 | 0.14 | 0.00 | 58 | 1006.9 |
| 20260503193550 | 47 | 9 | 3.0 | 10.0 | 0.00 | 0.14 | 0.00 | 57 | 1007.1 |